Погода в Должицах

Россия / Псковская область     58°30′31″N   29°06′51″E
темп.,
°C
ветер,
м/с
пор.,
м/с
влажн.,
%
обл.,
%
осадки,
мм/ч
давл.,
гПа
погр.,
м
13 мая, чт
чт1300:00+14всв228028 0.0 101717
03:00+13всв310845 0.0 1015226
06:00+13вюв3109171 0.0 1014308
09:00+16юв587987 0.0 1013870
12:00+18юв574827 0.1 10131398
15:00+19юв574211 0.1 10122140
18:00+15ююв256186 0.0 1011245
21:00+12в257699 0.0 1010103
14 мая, пт
пт1400:00+12вюв3982100 0.1 1010603
03:00+9юв389399 0.1 1010283
06:00+8юв38943 0.0 1009272
09:00+13юв476461 0.0 1010887
12:00+16юв595889 0.0 10091429
15:00+16ююв596491 0.1 10091359
18:00+15ююв597776 0.8 1008989
21:00+13юв398697 0.9 1008448
15 мая, сб
сб1500:00+11вюв389225 0.0 1007182
03:00+10вюв279448 0.0 1007150
06:00+11вюв289392 0.0 1005209
09:00+16юв357399 0.1 1005491
12:00+18ююв3373100 1.1 1004900
15:00+18зюз237590 4.3 1004835
18:00+16зсз358749 2.8 1004593
21:00+12з39897 3.6 1005197
16 мая, вс
вс1600:00+8з399250 0.0 1007211
03:00+7з269340 0.0 1009117
06:00+8зюз239363 0.0 101076
09:00+13ююз1273100 0.0 1011425
12:00+17ю2353100 0.0 10121245
15:00+19ю234899 0.0 10111880
18:00+19вюв345358 0.0 10111293
21:00+14юв2681100 0.0 1011111
17 мая, пн
пн1700:00+12юв3887100 0.0 1011187
03:00+10юв27955 0.0 1011124
06:00+11юв39935 0.0 1011235
09:00+18юв596799 0.0 1010698
12:00+21ююв6105498 0.1 10091732
15:00+23юв694480 0.1 10072440
18:00+18ююв51079100 0.9 1006874
21:00+14ю2397100 4.1 1006110